Regional Weather Roundup
Issued by NWS

Home | Current Version | Previous Version | Text Only | Print | Product List | Glossary Off
Versions: 1 2 3 4 5 6 7 8 9 10 11 12 13 14 15 16 17 18 19 20 21 22 23 24 25 26 27 28 29 30 31 32 33 34 35 36 37 38 39 40 41 42 43 44 45 46 47 48 49 50

000
ASUS44 KMEG 210600
RWRTN
TENNESSEE HOURLY STATE WEATHER ROUNDUP
NATIONAL WEATHER SERVICE MEMPHIS TN
100 AM CDT TUE OCT 21 2014

TNZ002-004-019-021-049-052-054-088>092-210700-
WEST TENNESSEE

CITY           SKY/WX    TMP DP  RH WIND       PRES   REMARKS
MEMPHIS INTL   CLEAR     58  53  84 CALM      30.03S
NWS MEMPHIS      N/A     53 N/A N/A MISG        N/A
JACKSON        PTCLDY    54  50  86 SW5       30.02S
DYERSBURG      CLEAR     57  45  62 W3        30.03S
UNION CITY     CLEAR     52  52 100 CALM      30.01S
PARIS          CLEAR     50  48  93 CALM      30.02S
LEXINGTON      MOCLDY    48  48 100 CALM      30.01S
SAVANNAH       CLEAR     46  46 100 CALM      30.03S
$$

TNZ008-025-027-028-033-062-065-066-210700-
NORTH MIDDLE TENNESSEE

CITY           SKY/WX    TMP DP  RH WIND       PRES   REMARKS
NASHVILLE      CLEAR     52  49  89 CALM      30.01S
CLARKSVILLE    CLEAR     53  51  93 NW6       30.01R
COOKEVILLE     CLEAR     46  45  93 CALM      30.01S
CROSSVILLE     PTCLDY    51  45  79 W7        30.03S
$$

TNZ061-075-076-078-094-096-097-210700-
SOUTH MIDDLE TENNESSEE

CITY           SKY/WX    TMP DP  RH WIND       PRES   REMARKS
WINCHESTER     CLEAR     45  45 100 CALM      30.04S
MCMINNVILLE    CLEAR     48  48 100 CALM      30.02S
SHELBYVILLE    CLEAR     46  46 100 CALM      30.03S
$$

TNZ017-018-042-046-047-210700-
NORTHEAST TENNESSEE

CITY           SKY/WX    TMP DP  RH WIND       PRES   REMARKS
TRI CITIES     CLEAR     49  47  93 CALM      30.00R
ELIZABETHTON   CLOUDY    52  48  87 CALM      30.00S
$$

TNZ012-013-036-069-073-074-210700-
CENTRAL EAST TENNESSEE

CITY           SKY/WX    TMP DP  RH WIND       PRES   REMARKS
KNOXVILLE      PTCLDY    54  49  83 SW9       30.00S
OAK RIDGE      CLEAR     53  50  89 SW3       30.01F
GATLINBURG     CLEAR     54  48  82 CALM      30.00S
MORRISTOWN     CLEAR     50  48  93 S3        30.00F
$$

TNZ083-085-099-210700-
SOUTHEAST TENNESSEE

CITY           SKY/WX    TMP DP  RH WIND       PRES   REMARKS
CHATTANOOGA    CLEAR     51  49  92 CALM      30.02F
$$

SKY/WX REPORTED AS FAIR MEANS FEW OR NO CLOUDS BELOW
12 THOUSAND FEET.




USA.gov is the U.S. government's official web portal to all federal, state and local government web resources and services.